This demonstration page uses our WeatherBlox Daily Observations layout. Learn more.

Left ArrowRight Arrow

Hourly Observations for July 3, 2022

Temp ( °F °C ) Dew Point ( °F °C ) Humidity (%) Winds ( mph kmh ) Pressure ( in mb ) Visibility ( mi km ) Precip ( " mm )
12:56 am 00:56 Clear 70 21.2 63 17.4 79 79 Calm 30.05 1018 10 16 0.00 0.00
1:56 am 01:56 Clear 68 20.1 63 17.3 84 84 Calm 30.05 1018 10 16 0.00 0.00
2:56 am 02:56 Clear 67 19.7 64 17.5 87 87 Calm 30.06 1018 10 16 0.00 0.00
3:56 am 03:56 Clear 67 19.4 64 17.9 91 91 Calm 30.07 1018 10 16 0.00 0.00
4:56 am 04:56 Clear 66 18.8 64 17.6 93 93 Calm 30.07 1018 9 14 0.00 0.00
5:56 am 05:56 Clear 65 18.6 64 17.8 95 95 ESE 3 6 30.07 1018 9 14 0.00 0.00
6:56 am 06:56 undefined 67 19.5 65 18.1 92 92 SSE 6 9 30.06 1018 10 16 0.00 0.00
7:56 am 07:56 Cloudy 69 20.3 64 18 87 87 SSE 8 13 30.06 1018 10 16 0.00 0.00
8:56 am 08:56 Cloudy 70 21.1 66 18.8 87 87 SE 6 9 30.07 1018 10 16 0.00 0.00
9:56 am 09:56 Cloudy 72 22.3 67 19.2 83 83 S 9 15 30.07 1018 10 16 0.00 0.00
10:56 am 10:56 Cloudy 74 23.1 67 19.6 81 81 SSE 8 13 30.06 1018 10 16 0.00 0.00
11:56 am 11:56 Mostly Cloudy 78 25.4 68 20.2 73 73 SSE 7 11 30.06 1018 10 16 0.00 0.00
12:56 pm 12:56 Mostly Cloudy 81 27.1 69 20.7 68 68 SE 7 11 30.04 1017 10 16 0.00 0.00
1:56 pm 13:56 Mostly Cloudy 85 29.4 69 20.8 60 60 SSE 7 11 30.03 1017 10 16 0.00 0.00
2:56 pm 14:56 Mostly Sunny 86 29.9 69 20.7 58 58 SSE 9 15 30.01 1016 10 16 0.00 0.00
3:56 pm 15:56 Mostly Sunny 89 31.6 69 20.8 53 53 SE 10 17 30.00 1016 10 16 0.00 0.00
4:56 pm 16:56 Mostly Sunny 88 31.3 69 20.8 54 54 SSE 12 19 29.99 1016 10 16 0.00 0.00
5:56 pm 17:56 Partly Cloudy 88 31.2 70 21.3 56 56 SE 14 22 29.97 1015 10 16 0.00 0.00
6:56 pm 18:56 Partly Cloudy 87 30.3 70 21.1 58 58 SSE 12 19 29.96 1015 10 16 0.00 0.00
7:56 pm 19:56 Mostly Sunny 85 29.4 71 21.8 64 64 SSE 12 19 29.96 1015 10 16 0.00 0.00
8:56 pm 20:56 Sunny 83 28.1 72 22.1 70 70 SE 9 15 29.97 1015 10 16 0.00 0.00
9:56 pm 21:56 Mostly Clear 79 26.3 71 21.9 77 77 ESE 5 7 29.98 1015 10 16 0.00 0.00
10:56 pm 22:56 Partly Cloudy 79 26.1 72 22.1 79 79 ESE 6 9 29.98 1015 10 16 0.00 0.00
11:56 pm 23:56 Clear 79 26 72 22 79 79 SE 12 19 29.93 1013 10 16 0.00 0.00

Powered by AerisWeather